Temp
6 5 6 5 5 4 4 4 3 3 3 3 2 2 2 1 1 0 -0 -0 -1 -1 -1 -1 -2 -2 -3 -3 -4 -4 -5 -6 -7 -3 -4 -5 -5 -5 -6 -6 -6 -7 -7
5 5 4 4 4 4 4 3 3 3 2 2 1 1 1 0 -0 -1 -1 -1 -2 -2 -2 -2 -3 -4 -4 -5 -6 -6 -7 -7 -9 -7 -7 -8 -9 -9 -9 -9 -9 -9 -9
4 4 4 4 3 3 3 3 2 2 2 1 1 0 -0 -1 -1 -2 -2 -3 -3 -3 -4 -4 -5 -5 -6 -6 -7 -9 -9 -10 -10 -11 -10 -11 -11 -10 -10 -10 -10 -11 -11
4 3 3 3 3 3 2 2 2 1 0 -0 -1 -1 -1 -2 -3 -3 -3 -3 -4 -4 -5 -6 -7 -7 -9 -10 -10 -11 -12 -12 -12 -13 -12 -12 -13 -12 -13 -12 -12 -12 -13
3 3 3 3 2 2 2 1 1 0 -0 -1 -2 -2 -3 -3 -3 -4 -4 -5 -5 -6 -6 -7 -8 -9 -10 -10 -12 -13 -13 -13 -13 -14 -14 -14 -13 -14 -14 -14 -14 -13 -12
2 2 2 2 2 2 1 0 -0 -1 -1 -2 -3 -3 -4 -4 -4 -5 -6 -6 -6 -7 -7 -8 -9 -10 -10 -12 -13 -14 -14 -14 -14 -14 -15 -15 -14 -15 -15 -15 -15 -14 -14
2 2 2 2 1 0 0 -0 -1 -2 -2 -3 -3 -4 -5 -5 -5 -6 -6 -7 -7 -8 -9 -10 -10 -11 -12 -13 -14 -14 -13 -14 -15 -15 -15 -16 -16 -16 -16 -15 -15 -15 -15
2 1 1 1 0 -0 -1 -1 -2 -3 -3 -4 -5 -5 -5 -6 -6 -7 -7 -7 -8 -8 -9 -10 -11 -12 -13 -14 -15 -14 -13 -13 -14 -16 -16 -16 -16 -15 -16 -16 -16 -15 -15
1 1 0 -0 -1 -1 -1 -2 -3 -4 -4 -5 -5 -6 -6 -6 -7 -7 -8 -8 -8 -9 -9 -10 -11 -13 -14 -15 -15 -15 -15 -14 -15 -16 -15 -14 -14 -15 -16 -17 -16 -16 -15
1 0 -0 -1 -1 -2 -2 -3 -3 -4 -5 -6 -6 -6 -7 -7 -7 -8 -9 -9 -9 -9 -10 -10 -12 -13 -15 -15 -16 -16 -15 -16 -16 -14 -13 -13 -14 -14 -15 -16 -17 -18 -17
0 -0 -1 -1 -2 -2 -3 -4 -5 -5 -6 -6 -7 -7 -7 -8 -8 -9 -9 -10 -11 -11 -11 -11 -12 -14 -15 -16 -16 -16 -17 -17 -15 -15 -14 -14 -14 -15 -16 -16 -17 -18 -17
-0 -1 -1 -2 -3 -3 -4 -5 -6 -6 -7 -7 -7 -7 -8 -8 -9 -9 -10 -11 -11 -11 -12 -13 -14 -16 -16 -15 -15 -16 -18 -16 -16 -16 -16 -16 -16 -16 -16 -16 -16 -17 -18
-1 -1 -2 -3 -4 -4 -5 -6 -6 -7 -7 -8 -8 -8 -8 -9 -9 -10 -11 -10 -11 -12 -13 -15 -15 -14 -14 -14 -15 -15 -16 -17 -18 -18 -18 -18 -18 -17 -17 -17 -16 -16 -17
-2 -2 -3 -3 -4 -5 -6 -6 -7 -8 -8 -8 -9 -9 -9 -10 -10 -10 -10 -11 -12 -13 -15 -14 -14 -14 -14 -15 -15 -17 -18 -18 -19 -19 -19 -19 -18 -18 -18 -18 -18 -17 -18
-2 -3 -3 -4 -5 -6 -7 -7 -8 -8 -9 -9 -10 -10 -11 -10 -11 -12 -14 -14 -15 -16 -16 -15 -15 -15 -15 -17 -18 -19 -19 -19 -20 -20 -20 -20 -19 -19 -19 -19 -19 -18 -19
-3 -3 -4 -5 -6 -7 -7 -8 -9 -9 -9 -10 -11 -11 -12 -12 -13 -13 -14 -15 -17 -17 -16 -16 -16 -17 -18 -19 -19 -20 -20 -21 -21 -21 -21 -21 -21 -21 -21 -19 -19 -20 -20
-3 -4 -5 -6 -6 -7 -8 -9 -9 -10 -10 -11 -11 -12 -13 -13 -13 -13 -14 -17 -16 -16 -16 -16 -17 -18 -19 -20 -21 -21 -21 -22 -22 -22 -22 -22 -22 -22 -22 -21 -21 -20 -20
-4 -5 -5 -6 -7 -8 -9 -10 -10 -11 -10 -11 -12 -12 -13 -14 -14 -14 -15 -15 -15 -15 -16 -17 -18 -19 -20 -21 -22 -22 -23 -23 -23 -23 -23 -23 -23 -23 -23 -22 -22 -22 -21
-4 -5 -6 -7 -8 -9 -10 -10 -11 -12 -12 -12 -12 -12 -13 -14 -14 -14 -15 -15 -16 -16 -17 -18 -19 -20 -21 -22 -23 -23 -24 -24 -24 -24 -23 -24 -24 -24 -23 -23 -23 -23 -22
-5 -6 -6 -7 -8 -9 -10 -11 -12 -13 -13 -13 -13 -14 -14 -14 -14 -14 -15 -16 -16 -17 -18 -20 -21 -21 -22 -23 -24 -24 -25 -25 -24 -24 -24 -24 -24 -24 -24 -23 -23 -23 -22
-5 -6 -7 -8 -9 -11 -12 -12 -13 -13 -13 -14 -14 -15 -15 -16 -16 -16 -16 -17 -18 -19 -20 -21 -22 -22 -23 -24 -24 -24 -25 -25 -24 -25 -25 -24 -24 -24 -23 -23 -23 -24 -23
-6 -7 -8 -9 -11 -11 -12 -13 -14 -14 -14 -15 -15 -15 -16 -16 -16 -17 -17 -18 -19 -20 -21 -22 -23 -23 -24 -24 -24 -24 -25 -24 -24 -24 -24 -25 -24 -24 -24 -23 -23 -24 -23
-7 -8 -10 -11 -12 -13 -13 -14 -15 -15 -15 -15 -16 -16 -16 -16 -17 -18 -18 -19 -20 -21 -22 -23 -23 -24 -24 -24 -24 -24 -24 -24 -24 -24 -24 -24 -24 -24 -24 -24 -24 -24 -23
-9 -10 -11 -12 -13 -14 -14 -15 -15 -16 -16 -16 -17 -17 -17 -18 -18 -19 -20 -20 -21 -22 -23 -23 -23 -24 -23 -23 -23 -23 -23 -23 -23 -23 -23 -24 -24 -24 -24 -24 -24 -24 -23
-10 -11 -12 -14 -15 -16 -16 -16 -16 -16 -17 -17 -17 -18 -18 -18 -19 -20 -20 -21 -22 -23 -23 -23 -23 -23 -23 -23 -23 -23 -23 -22 -22 -22 -22 -23 -23 -24 -24 -24 -24 -24 -23
-11 -12 -14 -15 -16 -17 -18 -18 -18 -18 -18 -18 -18 -19 -19 -19 -20 -21 -21 -22 -23 -23 -23 -23 -23 -23 -23 -22 -22 -22 -22 -22 -22 -21 -23 -24 -24 -24 -24 -24 -24 -24 -23
Height
1560 1562 1563 1562 1562 1563 1565 1565 1564 1563 1562 1559 1558 1556 1555 1553 1552 1551 1550 1547 1545 1542 1540 1537 1534 1530 1529 1524 1520 1517 1514 1512 1501 1486 1486 1479 1472 1465 1459 1454 1448 1444 1440
1559 1561 1562 1563 1563 1563 1563 1563 1563 1561 1559 1558 1556 1554 1553 1552 1549 1547 1547 1547 1544 1541 1537 1534 1532 1526 1524 1521 1516 1512 1508 1504 1499 1482 1480 1471 1465 1459 1452 1443 1439 1435 1428
1558 1559 1561 1562 1563 1563 1563 1563 1560 1559 1557 1556 1555 1554 1552 1551 1549 1546 1543 1542 1542 1540 1536 1531 1527 1522 1520 1515 1510 1509 1504 1497 1493 1484 1468 1466 1459 1452 1442 1435 1430 1422 1418
1558 1559 1560 1560 1562 1562 1561 1560 1559 1558 1556 1555 1552 1553 1550 1546 1546 1546 1544 1541 1539 1537 1535 1530 1526 1520 1516 1514 1508 1503 1499 1492 1485 1481 1471 1459 1453 1446 1441 1429 1412 1414 1405
1558 1558 1558 1558 1561 1560 1560 1558 1556 1553 1554 1552 1550 1548 1549 1548 1544 1543 1542 1539 1536 1534 1530 1527 1523 1520 1512 1509 1503 1499 1493 1487 1482 1476 1466 1455 1447 1440 1435 1426 1415 1402 1392
1556 1557 1556 1555 1557 1557 1556 1555 1554 1552 1552 1550 1548 1548 1548 1546 1543 1542 1540 1536 1533 1528 1526 1523 1519 1512 1508 1503 1500 1496 1493 1486 1479 1472 1463 1453 1444 1439 1430 1423 1413 1402 1382
1553 1554 1556 1553 1554 1554 1552 1551 1551 1551 1549 1549 1548 1547 1544 1542 1541 1539 1537 1535 1529 1527 1523 1518 1512 1507 1502 1498 1494 1490 1486 1482 1476 1469 1458 1452 1441 1436 1428 1415 1408 1401 1389
1552 1553 1552 1551 1553 1551 1549 1549 1549 1546 1545 1547 1546 1546 1543 1538 1534 1536 1536 1532 1526 1522 1517 1512 1506 1501 1498 1495 1488 1481 1477 1472 1467 1461 1456 1447 1439 1430 1425 1415 1405 1394 1381
1549 1549 1549 1548 1548 1548 1547 1544 1544 1542 1544 1543 1543 1543 1539 1536 1533 1532 1531 1526 1520 1516 1511 1506 1501 1497 1493 1490 1481 1473 1469 1463 1458 1453 1447 1439 1431 1423 1417 1408 1397 1389 1377
1547 1547 1545 1545 1544 1543 1544 1543 1538 1542 1541 1539 1539 1539 1535 1532 1531 1530 1525 1519 1515 1510 1506 1502 1498 1492 1488 1484 1477 1470 1461 1454 1447 1438 1432 1426 1420 1412 1407 1402 1394 1385 1375
1543 1544 1543 1542 1539 1541 1540 1539 1537 1537 1536 1536 1535 1533 1531 1530 1528 1525 1521 1515 1509 1505 1501 1496 1491 1487 1484 1478 1473 1465 1459 1452 1442 1434 1425 1417 1410 1402 1396 1391 1385 1379 1368
1540 1540 1539 1538 1538 1537 1536 1534 1533 1532 1532 1531 1530 1530 1528 1526 1522 1519 1515 1510 1506 1500 1495 1490 1485 1482 1475 1470 1464 1457 1452 1444 1436 1427 1418 1410 1402 1394 1387 1380 1373 1367 1363
1537 1537 1537 1536 1534 1532 1530 1529 1529 1528 1528 1528 1527 1526 1524 1520 1517 1512 1508 1505 1501 1495 1491 1486 1480 1474 1468 1462 1456 1450 1444 1437 1429 1420 1412 1404 1398 1390 1382 1373 1364 1357 1349
1534 1533 1532 1530 1529 1527 1526 1526 1525 1525 1524 1523 1522 1519 1517 1514 1510 1507 1503 1498 1494 1488 1483 1478 1474 1468 1461 1455 1447 1441 1436 1430 1423 1415 1407 1399 1391 1383 1376 1369 1358 1348 1339
1529 1528 1527 1525 1524 1523 1523 1522 1521 1520 1519 1517 1515 1513 1510 1508 1505 1501 1497 1492 1487 1483 1478 1471 1463 1457 1449 1443 1437 1432 1427 1422 1415 1409 1401 1393 1386 1378 1371 1364 1356 1345 1338
1524 1523 1522 1521 1520 1519 1519 1518 1517 1516 1514 1512 1509 1506 1504 1501 1498 1495 1491 1486 1482 1476 1468 1462 1455 1448 1442 1435 1429 1423 1419 1414 1409 1402 1395 1389 1382 1374 1365 1358 1352 1344 1336
1520 1519 1518 1517 1515 1514 1513 1512 1512 1510 1508 1507 1504 1501 1498 1495 1492 1488 1484 1479 1474 1469 1463 1455 1447 1440 1434 1428 1423 1417 1411 1407 1402 1397 1390 1383 1377 1370 1362 1354 1348 1340 1332
1514 1513 1512 1511 1510 1509 1508 1506 1505 1504 1502 1502 1499 1495 1492 1489 1486 1482 1477 1470 1466 1460 1454 1447 1440 1433 1427 1422 1416 1411 1405 1400 1395 1390 1384 1377 1372 1366 1358 1351 1345 1338 1330
1509 1508 1507 1506 1504 1503 1502 1500 1499 1497 1496 1494 1493 1491 1486 1483 1479 1475 1470 1464 1457 1451 1445 1438 1433 1427 1421 1415 1410 1404 1399 1394 1389 1383 1377 1371 1366 1361 1354 1349 1342 1336 1329
1504 1503 1502 1500 1499 1498 1496 1495 1493 1491 1489 1487 1486 1483 1480 1476 1472 1467 1463 1457 1451 1444 1438 1431 1426 1420 1415 1409 1403 1397 1392 1387 1382 1377 1372 1365 1360 1356 1350 1345 1339 1332 1326
1499 1497 1496 1495 1494 1492 1490 1489 1487 1485 1483 1481 1478 1475 1471 1467 1463 1459 1454 1448 1443 1436 1430 1425 1420 1414 1408 1402 1397 1391 1387 1382 1377 1372 1366 1360 1355 1350 1346 1341 1336 1330 1324
1493 1491 1490 1489 1487 1486 1484 1483 1481 1478 1476 1473 1471 1468 1464 1461 1456 1451 1446 1441 1435 1430 1425 1419 1414 1408 1403 1397 1392 1387 1382 1377 1372 1366 1360 1355 1350 1345 1341 1337 1332 1327 1322
1486 1485 1484 1483 1481 1479 1478 1476 1474 1472 1470 1467 1464 1460 1457 1453 1448 1443 1437 1432 1427 1423 1418 1413 1407 1403 1399 1394 1389 1384 1377 1372 1367 1361 1355 1349 1344 1340 1337 1333 1328 1325 1320
1480 1479 1477 1476 1475 1474 1472 1471 1469 1466 1463 1460 1457 1453 1449 1445 1440 1435 1430 1425 1420 1416 1412 1408 1404 1399 1395 1390 1385 1379 1374 1368 1363 1357 1351 1346 1340 1336 1332 1329 1325 1322 1317
1474 1472 1471 1470 1469 1468 1467 1465 1463 1461 1458 1454 1450 1446 1442 1437 1432 1428 1423 1419 1415 1411 1407 1403 1399 1394 1390 1385 1380 1374 1368 1364 1359 1353 1347 1340 1335 1332 1328 1325 1322 1319 1315
1468 1466 1465 1464 1463 1462 1461 1459 1457 1454 1451 1447 1443 1439 1435 1430 1425 1421 1417 1413 1409 1405 1402 1398 1394 1389 1384 1380 1375 1369 1364 1359 1354 1348 1342 1336 1331 1327 1324 1321 1318 1315 1311
Wind_Speed
3 2 2 1 1 0 2 4 7 9 12 13 14 14 14 14 14 15 15 15 15 16 17 17 17 19 21 22 25 24 28 31 40 51 48 52 55 57 57 56 56 55 51
4 2 1 1 1 2 4 7 10 11 13 13 13 13 13 13 13 13 15 17 17 18 18 19 21 22 24 26 27 29 31 30 34 51 53 55 53 54 57 58 55 52 51
5 3 2 2 3 5 7 9 10 11 11 11 11 11 11 11 12 14 16 18 19 19 20 21 22 24 26 27 29 32 30 33 38 44 55 50 50 52 58 57 57 54 49
6 4 2 2 4 6 8 9 10 10 10 11 11 11 11 11 13 16 18 19 19 20 21 22 22 25 24 26 29 28 32 38 41 42 46 49 48 48 46 52 61 54 52
6 4 4 4 5 7 9 10 11 11 11 11 10 9 10 12 14 18 20 21 21 21 21 21 24 23 22 24 23 28 33 36 39 41 41 45 46 49 47 53 55 63 64
7 6 5 5 7 9 10 11 11 11 10 9 8 9 10 13 15 19 21 22 22 23 22 25 26 25 26 27 27 26 29 34 35 38 41 44 47 46 50 52 52 54 62
7 7 7 7 8 9 9 10 10 10 10 9 8 9 11 14 17 19 22 23 23 22 24 27 27 27 29 29 31 33 38 33 31 33 38 38 47 46 49 55 54 53 56
10 8 8 8 9 10 11 11 11 10 9 9 9 11 13 14 17 21 23 24 25 25 27 30 29 29 32 28 34 41 41 41 39 30 32 38 40 44 40 43 47 49 52
10 9 9 9 10 12 12 12 11 11 10 10 10 12 13 15 17 21 25 26 28 29 31 33 30 31 29 30 37 41 43 43 40 34 41 43 43 40 36 36 42 41 46
10 10 10 11 12 13 13 14 12 12 12 11 11 13 15 17 18 21 25 27 29 32 34 33 31 34 29 33 34 36 42 42 44 48 48 45 43 42 40 35 33 36 42
11 11 11 13 14 15 14 13 12 12 12 12 13 14 16 18 20 23 25 28 29 32 35 35 36 32 31 33 30 34 32 36 42 43 44 45 44 44 43 40 34 31 41
12 12 13 14 15 15 14 13 13 13 14 14 15 16 17 19 21 24 26 28 29 32 35 34 36 32 36 36 37 33 31 35 38 41 42 44 44 45 44 42 39 34 33
13 13 14 15 15 15 14 15 15 15 16 17 18 19 19 21 22 25 27 30 32 33 34 30 36 41 41 41 39 38 37 37 37 39 41 42 42 42 42 42 41 36 35
13 14 15 16 16 15 16 16 17 17 18 19 19 20 21 21 24 27 30 32 33 34 34 39 40 41 42 42 41 39 38 36 35 37 39 40 41 42 40 39 41 38 39
14 15 16 16 16 17 17 18 18 18 19 20 20 21 22 23 24 27 28 30 31 30 33 40 42 44 45 44 42 40 38 36 36 36 38 40 40 41 40 38 38 36 35
15 16 16 16 17 18 19 19 19 19 20 20 20 21 21 24 25 27 29 30 27 28 38 40 43 43 42 42 42 42 40 38 36 37 37 37 39 39 41 38 37 35 35
15 16 16 17 19 20 20 21 20 19 20 21 22 23 24 26 27 29 31 27 32 37 39 41 42 42 41 41 40 40 40 37 36 36 37 37 36 37 38 38 36 35 35
15 17 18 19 20 21 21 21 22 22 22 21 21 23 24 26 28 30 32 36 39 41 41 42 42 40 40 40 39 38 37 37 37 37 37 36 35 35 36 36 35 35 34
16 18 19 20 21 22 23 23 23 23 23 23 23 22 25 26 29 30 33 37 41 42 42 41 39 39 39 38 38 37 36 36 36 37 37 35 34 33 34 34 34 35 32
18 19 20 22 24 24 24 23 23 23 24 25 25 25 25 28 30 34 36 38 40 40 39 38 37 37 37 37 37 36 36 35 35 35 35 35 33 31 31 32 32 36 34
20 22 23 24 24 24 24 23 23 24 25 25 24 24 26 29 32 35 37 38 37 36 35 35 35 35 34 34 33 33 33 33 34 35 35 35 33 32 28 30 30 35 34
24 24 25 24 24 24 24 23 24 25 25 25 25 24 27 30 33 37 37 36 35 33 31 31 31 30 30 30 30 31 33 35 33 33 35 35 33 30 27 29 29 34 33
25 25 25 25 24 24 24 23 24 24 24 25 26 28 30 34 36 36 35 33 32 30 28 27 28 28 27 27 29 30 33 31 31 34 34 34 32 29 25 27 28 34 32
25 26 25 25 24 24 23 23 24 24 25 26 27 30 34 36 35 34 32 30 29 26 25 25 25 26 25 27 29 29 29 30 31 31 31 31 29 27 25 25 26 31 31
27 25 25 24 23 22 22 23 24 24 25 27 31 33 35 35 34 32 29 27 24 24 24 24 23 24 26 27 30 29 26 26 27 29 33 29 29 28 26 25 26 28 28
24 24 24 22 20 20 22 23 24 25 27 30 33 34 35 35 32 28 26 23 22 22 21 21 22 24 26 26 26 27 25 26 29 36 29 31 32 28 25 23 24 25 25
Wind_Direction
164 183 235 214 180 306 308 312 320 325 329 332 336 339 343 348 350 352 354 358 359 359 356 353 347 345 341 340 339 336 332 326 316 314 317 323 325 327 327 327 326 325 320
189 177 169 241 316 332 332 331 331 331 332 334 337 339 341 347 352 354 356 357 356 353 353 348 346 344 341 338 338 335 332 331 323 318 323 326 327 329 327 326 325 321 318
190 205 240 299 328 330 329 328 327 328 329 329 331 333 339 346 353 358 359 358 353 350 346 345 344 342 339 338 337 334 335 330 328 323 322 325 325 327 326 326 324 321 318
204 212 236 291 308 312 319 322 324 328 330 332 334 338 341 347 353 353 352 350 348 348 344 343 344 343 340 334 334 340 331 331 332 323 318 320 322 327 324 323 321 319 316
215 222 241 270 294 311 320 326 331 334 330 329 330 334 338 341 344 346 350 350 348 345 342 342 341 341 340 336 343 330 335 331 322 319 318 320 323 324 324 323 318 318 317
217 233 250 282 304 316 323 330 326 321 315 315 318 323 330 335 343 343 346 347 346 342 340 340 339 346 342 345 336 336 329 324 323 321 319 318 321 321 321 317 316 315 314
231 248 268 291 303 315 319 314 308 308 308 306 307 317 330 334 337 338 340 341 343 342 342 342 344 345 345 341 338 329 332 333 327 322 320 319 316 318 317 316 316 310 305
235 252 274 290 300 304 306 306 305 305 304 300 308 314 320 327 333 335 334 339 343 343 343 345 344 344 341 339 330 329 333 334 332 327 317 313 315 316 315 309 307 308 307
242 258 272 290 296 306 307 305 306 302 293 290 296 305 317 325 330 333 333 336 343 342 344 344 343 339 339 335 329 329 328 330 332 324 325 324 323 323 322 317 317 315 307
250 265 281 293 304 302 301 301 298 288 283 285 294 306 317 324 327 328 336 339 339 340 341 339 338 337 335 332 329 323 325 332 328 329 328 326 327 327 331 330 319 309 312
257 273 287 296 299 298 294 290 287 282 283 287 298 309 316 321 329 331 333 338 338 335 335 336 335 336 329 329 326 323 328 322 325 325 327 328 328 329 333 333 328 323 314
266 279 292 296 291 288 290 292 290 288 288 292 299 305 314 320 324 329 334 335 333 331 333 331 332 326 327 327 326 327 324 324 325 328 331 332 332 330 330 334 333 327 318
274 284 286 286 289 293 294 293 293 292 291 291 298 305 310 317 325 330 330 329 330 330 330 325 325 328 327 326 327 327 328 330 331 331 331 332 332 331 330 333 334 332 332
274 283 290 292 294 293 295 296 294 290 288 293 299 304 310 319 326 324 325 328 329 330 332 324 326 324 324 325 327 330 331 332 330 330 329 330 331 333 332 337 337 336 336
282 287 291 294 294 295 294 292 289 286 288 294 300 307 314 319 322 324 326 327 329 329 314 323 326 327 327 329 329 330 330 332 331 330 330 331 333 333 334 337 340 338 332
286 292 293 294 294 291 292 291 289 287 288 295 303 309 313 317 322 324 325 326 326 319 324 326 326 328 328 328 328 329 330 331 331 329 329 330 332 334 334 336 340 340 335
287 292 293 292 292 292 292 292 291 287 293 301 309 313 316 318 321 324 326 326 323 325 325 327 327 328 328 328 327 327 326 327 328 328 328 328 330 332 334 336 338 340 338
286 291 292 291 291 292 293 294 294 295 297 302 308 312 315 317 320 324 326 325 326 327 328 327 328 328 327 325 325 325 325 326 327 327 327 326 328 331 332 335 338 339 339
286 288 289 291 293 294 294 294 294 297 301 306 307 308 311 314 319 323 326 327 326 326 327 327 327 327 325 324 324 324 324 324 325 326 327 324 325 328 330 333 337 339 339
282 287 295 295 293 292 292 293 297 302 306 309 311 312 313 316 321 326 326 325 325 326 327 327 327 327 325 325 325 325 323 326 327 328 327 324 323 324 326 331 337 337 338
287 291 292 291 292 293 295 297 300 304 307 307 311 316 321 323 325 324 324 326 327 327 329 328 327 327 329 329 328 326 327 329 330 328 326 326 323 320 324 329 336 337 336
285 286 288 291 293 295 295 297 300 303 305 308 314 318 320 321 322 323 325 325 326 328 329 328 330 334 336 335 334 334 332 331 331 329 328 326 321 319 320 326 334 337 335
284 287 291 294 295 296 295 298 301 303 307 312 316 319 321 322 322 323 323 324 326 328 333 335 337 339 340 338 337 334 332 332 330 327 325 323 321 320 317 323 331 328 332
286 287 289 291 293 295 297 300 304 308 311 313 317 319 319 320 321 321 322 324 327 331 336 337 337 338 337 336 334 330 329 330 329 328 326 325 321 319 315 319 326 324 328
289 289 290 292 294 296 299 304 307 309 312 315 315 316 318 319 319 320 321 322 325 330 335 339 339 338 338 339 338 333 326 325 324 323 324 324 323 322 317 316 317 321 324
291 290 292 294 298 299 301 305 308 310 311 311 314 317 318 317 316 316 318 318 322 329 335 340 339 338 338 340 345 347 342 338 337 344 335 324 317 315 315 309 312 316 321